Time,TemperatureF,DewpointF,PressureIn,WindDirection,WindDirectionDegrees,WindSpeedMPH,WindSpeedGustMPH,Humidity,HourlyPrecipIn,Conditions,Clouds,dailyrainin,SoftwareType,DateUTC
2013-05-15 00:02:00,75.0,52.0,29.75,South,175,6.0,-999.0,44,-99.99,,,-99.99,,2013-05-15 05:02:00,
2013-05-15 00:12:00,75.0,52.0,29.75,South,175,6.0,-999.0,44,-99.99,,,-99.99,,2013-05-15 05:12:00,
2013-05-15 00:22:00,75.0,52.0,29.75,South,178,5.0,-999.0,45,-99.99,,,-99.99,,2013-05-15 05:22:00,
2013-05-15 00:32:00,75.0,53.0,29.75,South,177,3.0,-999.0,46,-99.99,,,-99.99,,2013-05-15 05:32:00,
2013-05-15 00:42:00,75.0,53.0,29.75,South,177,3.0,-999.0,46,-99.99,,,-99.99,,2013-05-15 05:42:00,
2013-05-15 00:52:00,75.0,53.0,29.76,South,179,2.0,-999.0,47,-99.99,,,-99.99,,2013-05-15 05:52:00,
2013-05-15 01:02:00,74.0,54.0,29.76,South,179,0.0,-999.0,49,-99.99,,,-99.99,,2013-05-15 06:02:00,
2013-05-15 01:11:00,74.0,54.0,29.76,South,179,0.0,-999.0,49,-99.99,,,-99.99,,2013-05-15 06:11:00,
2013-05-15 01:21:00,73.0,53.0,29.76,South,179,4.0,-999.0,50,-99.99,,,-99.99,,2013-05-15 06:21:00,
2013-05-15 01:32:00,73.0,53.0,29.75,South,179,3.0,-999.0,50,-99.99,,,-99.99,,2013-05-15 06:32:00,
2013-05-15 01:42:00,73.0,53.0,29.75,South,179,3.0,-999.0,50,-99.99,,,-99.99,,2013-05-15 06:42:00,
2013-05-15 01:51:00,73.0,54.0,29.76,South,179,4.0,-999.0,51,-99.99,,,-99.99,,2013-05-15 06:51:00,
2013-05-15 02:01:00,73.0,54.0,29.76,South,169,5.0,-999.0,52,-99.99,,,-99.99,,2013-05-15 07:01:00,
2013-05-15 02:11:00,73.0,54.0,29.76,South,169,5.0,-999.0,52,-99.99,,,-99.99,,2013-05-15 07:11:00,
2013-05-15 02:21:00,72.0,54.0,29.76,South,169,6.0,-999.0,53,-99.99,,,-99.99,,2013-05-15 07:21:00,
2013-05-15 02:32:00,72.0,54.0,29.76,South,169,4.0,-999.0,54,-99.99,,,-99.99,,2013-05-15 07:32:00,
2013-05-15 02:41:00,72.0,54.0,29.76,South,169,4.0,-999.0,54,-99.99,,,-99.99,,2013-05-15 07:41:00,
2013-05-15 02:52:00,71.0,54.0,29.76,South,169,2.0,-999.0,55,-99.99,,,-99.99,,2013-05-15 07:52:00,
2013-05-15 03:02:00,71.0,54.0,29.77,South,169,0.0,-999.0,56,-99.99,,,-99.99,,2013-05-15 08:02:00,
2013-05-15 03:12:00,71.0,54.0,29.77,South,169,0.0,-999.0,56,-99.99,,,-99.99,,2013-05-15 08:12:00,
2013-05-15 03:21:00,70.0,55.0,29.77,South,169,0.0,-999.0,58,-99.99,,,-99.99,,2013-05-15 08:21:00,
2013-05-15 03:32:00,70.0,55.0,29.77,South,169,3.0,-999.0,59,-99.99,,,-99.99,,2013-05-15 08:32:00,
2013-05-15 03:42:00,69.0,55.0,29.78,South,169,3.0,-999.0,60,-99.99,,,-99.99,,2013-05-15 08:42:00,
2013-05-15 03:53:00,69.0,55.0,29.78,South,169,3.0,-999.0,60,-99.99,,,-99.99,,2013-05-15 08:53:00,
2013-05-15 04:01:00,69.0,55.0,29.78,South,169,4.0,-999.0,62,-99.99,,,-99.99,,2013-05-15 09:01:00,
2013-05-15 04:11:00,69.0,55.0,29.78,South,169,4.0,-999.0,62,-99.99,,,-99.99,,2013-05-15 09:11:00,
2013-05-15 04:21:00,68.0,55.0,29.78,South,169,0.0,-999.0,64,-99.99,,,-99.99,,2013-05-15 09:21:00,
2013-05-15 04:33:00,67.0,55.0,29.79,South,169,0.0,-999.0,65,-99.99,,,-99.99,,2013-05-15 09:33:00,
2013-05-15 04:42:00,67.0,55.0,29.79,South,169,0.0,-999.0,65,-99.99,,,-99.99,,2013-05-15 09:42:00,
2013-05-15 04:53:00,66.0,55.0,29.80,South,169,0.0,-999.0,67,-99.99,,,-99.99,,2013-05-15 09:53:00,
2013-05-15 05:02:00,65.0,55.0,29.80,South,169,0.0,-999.0,69,-99.99,,,-99.99,,2013-05-15 10:02:00,
2013-05-15 05:12:00,65.0,55.0,29.80,South,169,0.0,-999.0,69,-99.99,,,-99.99,,2013-05-15 10:12:00,
2013-05-15 05:22:00,65.0,55.0,29.80,South,169,0.0,-999.0,71,-99.99,,,-99.99,,2013-05-15 10:22:00,
2013-05-15 05:32:00,64.0,55.0,29.80,South,169,0.0,-999.0,73,-99.99,,,-99.99,,2013-05-15 10:32:00,
2013-05-15 05:42:00,64.0,55.0,29.80,South,169,0.0,-999.0,73,-99.99,,,-99.99,,2013-05-15 10:42:00,
2013-05-15 05:52:00,63.0,55.0,29.80,South,169,0.0,-999.0,74,-99.99,,,-99.99,,2013-05-15 10:52:00,
2013-05-15 06:09:00,63.0,55.0,29.80,South,169,0.0,-999.0,74,-99.99,,,-99.99,,2013-05-15 11:09:00,
2013-05-15 06:26:00,62.0,54.0,29.80,South,169,0.0,-999.0,75,-99.99,,,-99.99,,2013-05-15 11:26:00,
2013-05-15 06:36:00,62.0,54.0,29.80,South,169,0.0,-999.0,74,-99.99,,,-99.99,,2013-05-15 11:36:00,
2013-05-15 06:47:00,62.0,54.0,29.80,South,169,0.0,-999.0,74,-99.99,,,-99.99,,2013-05-15 11:47:00,
2013-05-15 06:55:00,62.0,54.0,29.80,South,169,0.0,-999.0,75,-99.99,,,-99.99,,2013-05-15 11:55:00,
2013-05-15 07:14:00,61.0,54.0,29.80,South,169,0.0,-999.0,77,-99.99,,,-99.99,,2013-05-15 12:14:00,
2013-05-15 07:36:00,62.0,55.0,29.82,South,169,0.0,-999.0,78,-99.99,,,-99.99,,2013-05-15 12:36:00,
2013-05-15 07:47:00,62.0,55.0,29.82,South,169,0.0,-999.0,78,-99.99,,,-99.99,,2013-05-15 12:47:00,
2013-05-15 07:54:00,63.0,57.0,29.82,South,169,0.0,-999.0,80,-99.99,,,-99.99,,2013-05-15 12:54:00,
2013-05-15 08:08:00,64.0,57.0,29.82,South,169,0.0,-999.0,79,-99.99,,,-99.99,,2013-05-15 13:08:00,
2013-05-15 08:17:00,64.0,57.0,29.82,South,169,0.0,-999.0,79,-99.99,,,-99.99,,2013-05-15 13:17:00,
2013-05-15 08:25:00,67.0,59.0,29.83,South,169,0.0,-999.0,75,-99.99,,,-99.99,,2013-05-15 13:25:00,
2013-05-15 08:36:00,70.0,59.0,29.83,South,169,0.0,-999.0,67,-99.99,,,-99.99,,2013-05-15 13:36:00,
2013-05-15 08:46:00,70.0,59.0,29.83,South,169,0.0,-999.0,67,-99.99,,,-99.99,,2013-05-15 13:46:00,
2013-05-15 09:05:00,72.0,59.0,29.83,South,176,7.0,-999.0,63,-99.99,,,-99.99,,2013-05-15 14:05:00,
2013-05-15 09:14:00,72.0,59.0,29.83,South,176,7.0,-999.0,63,-99.99,,,-99.99,,2013-05-15 14:14:00,
2013-05-15 09:36:00,75.0,60.0,29.83,South,176,1.0,-999.0,60,-99.99,,,-99.99,,2013-05-15 14:36:00,
2013-05-15 09:53:00,75.0,59.0,29.83,South,178,1.0,-999.0,58,-99.99,,,-99.99,,2013-05-15 14:53:00,
2013-05-15 10:08:00,75.0,58.0,29.83,South,179,5.0,-999.0,56,-99.99,,,-99.99,,2013-05-15 15:08:00,
2013-05-15 10:15:00,75.0,58.0,29.83,South,179,5.0,-999.0,56,-99.99,,,-99.99,,2013-05-15 15:15:00,
2013-05-15 10:27:00,76.0,59.0,29.82,SSW,193,1.0,-999.0,55,-99.99,,,-99.99,,2013-05-15 15:27:00,
2013-05-15 10:36:00,77.0,59.0,29.81,South,186,1.0,-999.0,53,-99.99,,,-99.99,,2013-05-15 15:36:00,
2013-05-15 10:47:00,77.0,59.0,29.81,South,186,1.0,-999.0,53,-99.99,,,-99.99,,2013-05-15 15:47:00,
2013-05-15 10:56:00,78.0,59.0,29.82,South,184,3.0,-999.0,52,-99.99,,,-99.99,,2013-05-15 15:56:00,
2013-05-15 11:21:00,79.0,59.0,29.82,South,184,1.0,-999.0,50,-99.99,,,-99.99,,2013-05-15 16:21:00,
2013-05-15 11:27:00,78.0,58.0,29.82,South,186,2.0,-999.0,50,-99.99,,,-99.99,,2013-05-15 16:27:00,
2013-05-15 11:35:00,79.0,59.0,29.82,South,186,1.0,-999.0,50,-99.99,,,-99.99,,2013-05-15 16:35:00,
2013-05-15 11:47:00,79.0,59.0,29.82,South,186,1.0,-999.0,50,-99.99,,,-99.99,,2013-05-15 16:47:00,
2013-05-15 11:53:00,80.0,60.0,29.82,SSW,193,0.0,-999.0,51,-99.99,,,-99.99,,2013-05-15 16:53:00,
2013-05-15 12:08:00,80.0,59.0,29.82,South,169,0.0,-999.0,49,-99.99,,,-99.99,,2013-05-15 17:08:00,
2013-05-15 12:18:00,80.0,59.0,29.82,South,169,0.0,-999.0,49,-99.99,,,-99.99,,2013-05-15 17:18:00,
2013-05-15 12:26:00,81.0,59.0,29.81,South,169,0.0,-999.0,47,-99.99,,,-99.99,,2013-05-15 17:26:00,
2013-05-15 12:36:00,82.0,61.0,29.81,South,169,1.0,-999.0,49,-99.99,,,-99.99,,2013-05-15 17:36:00,
2013-05-15 12:45:00,82.0,61.0,29.81,South,169,1.0,-999.0,49,-99.99,,,-99.99,,2013-05-15 17:45:00,
2013-05-15 12:55:00,82.0,61.0,29.80,South,169,0.0,-999.0,50,-99.99,,,-99.99,,2013-05-15 17:55:00,
2013-05-15 13:05:00,83.0,62.0,29.80,South,169,0.0,-999.0,50,-99.99,,,-99.99,,2013-05-15 18:05:00,
2013-05-15 13:26:00,82.0,60.0,29.80,South,169,0.0,-999.0,48,-99.99,,,-99.99,,2013-05-15 18:26:00,
2013-05-15 13:36:00,84.0,61.0,29.80,South,169,3.0,-999.0,46,-99.99,,,-99.99,,2013-05-15 18:36:00,
2013-05-15 13:46:00,84.0,61.0,29.80,South,169,3.0,-999.0,46,-99.99,,,-99.99,,2013-05-15 18:46:00,
2013-05-15 13:54:00,84.0,63.0,29.80,South,178,1.0,-999.0,49,-99.99,,,-99.99,,2013-05-15 18:54:00,
2013-05-15 14:15:00,85.0,62.0,29.79,South,177,0.0,-999.0,46,-99.99,,,-99.99,,2013-05-15 19:15:00,
2013-05-15 14:29:00,84.0,59.0,29.79,South,177,1.0,-999.0,43,-99.99,,,-99.99,,2013-05-15 19:29:00,
2013-05-15 14:37:00,84.0,59.0,29.78,South,177,1.0,-999.0,43,-99.99,,,-99.99,,2013-05-15 19:37:00,
2013-05-15 14:54:00,84.0,58.0,29.78,South,177,0.0,-999.0,42,-99.99,,,-99.99,,2013-05-15 19:54:00,
2013-05-15 15:07:00,85.0,57.0,29.77,South,175,1.0,-999.0,39,-99.99,,,-99.99,,2013-05-15 20:07:00,
2013-05-15 15:27:00,86.0,61.0,29.77,South,175,1.0,-999.0,43,-99.99,,,-99.99,,2013-05-15 20:27:00,
2013-05-15 15:37:00,88.0,62.0,29.76,SE,133,0.0,-999.0,42,-99.99,,,-99.99,,2013-05-15 20:37:00,
2013-05-15 15:46:00,88.0,62.0,29.76,SE,133,0.0,-999.0,42,-99.99,,,-99.99,,2013-05-15 20:46:00,
2013-05-15 15:53:00,87.0,65.0,29.76,SSE,164,2.0,-999.0,48,-99.99,,,-99.99,,2013-05-15 20:53:00,
2013-05-15 16:07:00,88.0,61.0,29.75,South,180,2.0,-999.0,41,-99.99,,,-99.99,,2013-05-15 21:07:00,
2013-05-15 16:19:00,88.0,61.0,29.75,South,180,2.0,-999.0,41,-99.99,,,-99.99,,2013-05-15 21:19:00,
2013-05-15 16:27:00,88.0,63.0,29.74,South,173,2.0,-999.0,44,-99.99,,,-99.99,,2013-05-15 21:27:00,
2013-05-15 16:39:00,88.0,61.0,29.74,South,177,3.0,-999.0,41,-99.99,,,-99.99,,2013-05-15 21:39:00,
2013-05-15 16:56:00,88.0,62.0,29.74,South,180,2.0,-999.0,42,-99.99,,,-99.99,,2013-05-15 21:56:00,
2013-05-15 17:17:00,88.0,61.0,29.73,South,182,2.0,-999.0,41,-99.99,,,-99.99,,2013-05-15 22:17:00,
2013-05-15 17:38:00,88.0,63.0,29.72,South,175,5.0,-999.0,44,-99.99,,,-99.99,,2013-05-15 22:38:00,
2013-05-15 17:48:00,88.0,63.0,29.72,South,175,5.0,-999.0,44,-99.99,,,-99.99,,2013-05-15 22:48:00,
2013-05-15 17:54:00,87.0,64.0,29.72,South,178,6.0,-999.0,46,-99.99,,,-99.99,,2013-05-15 22:54:00,
2013-05-15 18:07:00,87.0,65.0,29.72,South,174,8.0,-999.0,49,-99.99,,,-99.99,,2013-05-15 23:07:00,
2013-05-15 18:15:00,87.0,65.0,29.72,South,174,8.0,-999.0,49,-99.99,,,-99.99,,2013-05-15 23:15:00,
2013-05-15 18:27:00,86.0,65.0,29.73,South,175,8.0,-999.0,49,-99.99,,,-99.99,,2013-05-15 23:27:00,
2013-05-15 18:38:00,85.0,65.0,29.73,South,188,7.0,-999.0,52,-99.99,,,-99.99,,2013-05-15 23:38:00,
2013-05-15 18:54:00,85.0,65.0,29.72,South,172,8.0,-999.0,52,-99.99,,,-99.99,,2013-05-15 23:54:00,
2013-05-15 19:05:00,84.0,66.0,29.72,South,180,8.0,-999.0,54,-99.99,,,-99.99,,2013-05-16 00:05:00,
2013-05-15 19:16:00,84.0,66.0,29.72,South,180,8.0,-999.0,54,-99.99,,,-99.99,,2013-05-16 00:16:00,
2013-05-15 19:25:00,84.0,66.0,29.72,South,174,7.0,-999.0,54,-99.99,,,-99.99,,2013-05-16 00:25:00,
2013-05-15 19:35:00,83.0,66.0,29.73,South,175,8.0,-999.0,56,-99.99,,,-99.99,,2013-05-16 00:35:00,
2013-05-15 19:48:00,82.0,66.0,29.72,South,173,7.0,-999.0,59,-99.99,,,-99.99,,2013-05-16 00:48:00,
2013-05-15 19:54:00,82.0,66.0,29.72,South,173,7.0,-999.0,59,-99.99,,,-99.99,,2013-05-16 00:54:00,
2013-05-15 20:16:00,81.0,66.0,29.73,South,172,6.0,-999.0,61,-99.99,,,-99.99,,2013-05-16 01:16:00,
2013-05-15 20:27:00,81.0,66.0,29.73,South,172,6.0,-999.0,61,-99.99,,,-99.99,,2013-05-16 01:27:00,
2013-05-15 20:35:00,80.0,65.0,29.73,South,180,11.0,-999.0,61,-99.99,,,-99.99,,2013-05-16 01:35:00,
2013-05-15 20:48:00,80.0,65.0,29.73,South,180,11.0,-999.0,61,-99.99,,,-99.99,,2013-05-16 01:48:00,
2013-05-15 20:55:00,78.0,64.0,29.74,South,182,7.0,-999.0,63,-99.99,,,-99.99,,2013-05-16 01:55:00,
2013-05-15 21:07:00,78.0,65.0,29.75,South,180,2.0,-999.0,64,-99.99,,,-99.99,,2013-05-16 02:07:00,
2013-05-15 21:37:00,76.0,65.0,29.76,South,179,6.0,-999.0,69,-99.99,,,-99.99,,2013-05-16 02:37:00,
2013-05-15 21:46:00,76.0,65.0,29.76,South,179,6.0,-999.0,69,-99.99,,,-99.99,,2013-05-16 02:46:00,
2013-05-15 21:53:00,76.0,65.0,29.76,South,179,6.0,-999.0,69,-99.99,,,-99.99,,2013-05-16 02:53:00,
2013-05-15 22:07:00,75.0,66.0,29.78,South,180,4.0,-999.0,73,-99.99,,,-99.99,,2013-05-16 03:07:00,
2013-05-15 22:16:00,75.0,66.0,29.78,South,180,4.0,-999.0,73,-99.99,,,-99.99,,2013-05-16 03:16:00,
2013-05-15 22:25:00,74.0,65.0,29.79,South,181,1.0,-999.0,73,-99.99,,,-99.99,,2013-05-16 03:25:00,
2013-05-15 22:36:00,74.0,65.0,29.79,South,175,0.0,-999.0,74,-99.99,,,-99.99,,2013-05-16 03:36:00,
2013-05-15 22:45:00,74.0,65.0,29.79,South,175,0.0,-999.0,74,-99.99,,,-99.99,,2013-05-16 03:45:00,
2013-05-15 22:54:00,73.0,65.0,29.80,South,175,0.0,-999.0,75,-99.99,,,-99.99,,2013-05-16 03:54:00,
2013-05-15 23:02:00,73.0,65.0,29.80,South,175,1.0,-999.0,76,-99.99,,,-99.99,,2013-05-16 04:02:00,
2013-05-15 23:12:00,73.0,65.0,29.80,South,175,1.0,-999.0,76,-99.99,,,-99.99,,2013-05-16 04:12:00,
2013-05-15 23:23:00,72.0,64.0,29.80,South,175,0.0,-999.0,77,-99.99,,,-99.99,,2013-05-16 04:23:00,
2013-05-15 23:33:00,72.0,65.0,29.80,South,175,2.0,-999.0,78,-99.99,,,-99.99,,2013-05-16 04:33:00,
2013-05-15 23:42:00,72.0,65.0,29.80,South,175,2.0,-999.0,78,-99.99,,,-99.99,,2013-05-16 04:42:00,
2013-05-15 23:53:00,72.0,65.0,29.81,South,181,5.0,-999.0,78,-99.99,,,-99.99,,2013-05-16 04:53:00,